[[{"header":{"parameterUnit":"m.s-1","parameterCategory":1,"la1":30.2991,"la2":30.254,"lo1":-89.0895,"lo2":-89.0444,"dy":0.0017,"dx":0.0017,"nx":28,"ny":28,"refTime":"2024-09-03T03:00:00:Z","depth":0,"parameterNumber":2,"parameterNumberName":"U-component_of_WINDS"},"data":[0,0,0,0,0,0,0,0,0,0,0,0,0,0,0,0,0,0,0,0,0,0,0,0,0,0,0,0,0,0,0,0,0,0,0,0,0,0,0,0,0,0,0,0,0,0,0,0,0,0,0,0,0,0,0,0,0,0,0.9346,0.9347,0,0.9423,0.9424,0.9425,0.9378,0.9375,0.9373,0.9371,0.9457,0.9461,0.9466,0,0,0,0,0,0,0,0,0,0,0,0,0,0.9163,0.9167,0.9346,0.9347,0.9348,0.9423,0.9424,0.9425,0.9378,0.9375,0.9372,0.937,0.9455,0.9461,0.9466,0,0,0,0,0,0,0,0,0,0,0,0,0,0.9242,0.9168,0.9346,0.9333,0.9333,0.9423,0.9424,0.9426,0.9378,0.9375,0.9372,0.9368,0.9454,0.946,0.9467,0.9576,0,0,0.9487,0.949,0,0,0,0,0,0,0,0,0.9238,0.9249,0.9334,0.9334,0.9334,0.9387,0.9391,0.9476,0.9379,0.9361,0.9371,0.9367,0.9437,0.9445,0.9467,0.958,0.9583,0.9487,0.9491,0.9494,0.9496,0,0,0,0,0,0,0,0.9232,0.9245,0.9377,0.9335,0.9335,0.9326,0.9333,0.9407,0.9418,0.9363,0.9359,0.9369,0.9436,0.9461,0.9469,0.9585,0.9487,0.9493,0.9497,0.95,0.9792,0.9796,0,0,0,0,0,0,0.9227,0.9241,0.9374,0.9379,0.9276,0.9332,0.934,0.9374,0.9416,0.942,0.9372,0.9366,0.9451,0.9461,0.9471,0.9603,0.9494,0.95,0.9504,0.9788,0.9793,0.9797,0,0,0,0,0,0,0.9223,0.9239,0.9371,0.9309,0.9325,0.9338,0.9377,0.9377,0.9401,0.9423,0.9425,0.9394,0.9449,0.9462,0.955,0.9605,0.9503,0.9509,0.9784,0.979,0.9795,0.9866,0,0,0,0,0,0,0.9218,0.9238,0.9278,0.931,0.9328,0.9446,0.938,0.9381,0.9412,0.9406,0.9445,0.9448,0.9447,0.954,0.9556,0.9612,0.9515,0.9779,0.9787,0.9793,0.9859,0.9873,0.9885,0,0,0,0,0,0.9212,0.9296,0.928,0.9297,0.9378,0.945,0.946,0.9455,0.9416,0.9458,0.9472,0.9447,0.9596,0.955,0.9568,0.9626,0.9776,0.9784,0.9793,0.9852,0.987,0.9885,0,0,0,0,0,0,0.9273,0.93,0.9283,0.938,0.9412,0.9441,0.9493,0.9474,0.952,0.9513,0.9506,0.9516,0.9608,0.9625,0.9573,0.9734,0.968,0.9693,0.9719,0.9736,0.975,0.9744,0.952,0,0,0,0,0,0.9297,0.935,0.9372,0.9456,0.9473,0.948,0.9511,0.9504,0.9539,0.9553,0.9574,0.961,0.9665,0.9702,0.9753,0.986,0.9869,0.991,0.9923,0.9934,0.9946,1.0005,1.0024,0.9825,0.9825,0.9825,0,0,0.9349,0.937,0.9405,0.9468,0.9493,0.955,0.9492,0.9556,0.9599,0.9563,0.9647,0.9664,0.9704,0.9802,0.9846,0.982,1.0002,0.9945,0.9954,0.9959,1.0016,1.0034,1.0051,0.9831,0.983,0.9829,0,0,0.9472,0.9493,0.9565,0.959,0.9627,0.9632,0.9649,0.9681,0.969,0.9773,0.9748,0.98,0.9895,0.9925,0.9953,1.0087,1.0067,1.0105,1.0176,1.0234,1.0249,1.0263,1.0312,1.033,1.0116,1.0116,1.0116,0,0.9532,0.9615,0.9605,0.967,0.97,0.9668,0.9742,0.9768,0.9821,0.9843,0.9812,0.993,0.9955,1.006,1.0093,1.0116,1.0137,1.0101,1.0247,1.0261,1.0274,1.0321,1.034,1.012,1.012,1.0119,1.0119,0,0.9688,0.9746,0.98,0.985,0.9886,0.9955,0.9958,0.9996,0.9986,0.9994,1.0081,1.0109,1.0166,1.019,1.0182,1.0295,1.0278,1.0247,1.0193,1.0297,1.0342,1.036,1.0126,1.0125,1.0124,1.0122,0,0,0.9853,0.9895,0.9915,0.9938,0.9976,1.0022,1.0091,1.0145,1.0178,1.0216,1.0275,1.0355,1.0327,1.0359,1.0353,1.0404,1.0511,1.0368,1.0368,1.0394,1.0639,1.0662,1.0683,1.0496,1.05,1.0503,1.0636,0,0.9979,1.0096,1.0089,1.0201,1.0256,1.0226,1.0286,1.0318,1.0328,1.0377,1.0389,1.0446,1.0404,1.0423,1.0472,1.0487,1.056,1.0477,1.0554,1.0556,1.0545,1.0706,1.0731,1.0855,1.0653,1.0656,1.0658,0,1.0142,1.0184,1.03,1.033,1.0353,1.0407,1.0456,1.0503,1.0539,1.0543,1.0577,1.0564,1.0636,1.0578,1.0678,1.0623,1.0653,1.0666,1.0671,1.0679,1.0614,1.072,1.0894,1.0914,1.0685,1.0682,1.0681,0,1.0252,1.0337,1.0418,1.0438,1.0475,1.0514,1.0532,1.0563,1.0596,1.064,1.0662,1.0714,1.0744,1.0785,1.0787,1.0745,1.0889,1.0831,1.0896,1.0896,1.0929,1.0927,1.1113,1.0947,1.0946,1.0946,1.0946,0,1.0395,1.0468,1.0467,1.0517,1.0598,1.059,1.0672,1.0686,1.0715,1.0768,1.0746,1.0798,1.0796,1.085,1.0852,1.0935,1.0948,1.0955,1.0955,1.0958,1.0957,1.0979,1.0971,1.0951,1.095,1.0949,1.0948,0,1.0532,1.0535,1.0621,1.0648,1.0657,1.0716,1.0741,1.0789,1.0796,1.0865,1.088,1.0893,1.0954,1.096,1.1031,1.1033,1.1134,1.1124,1.1122,1.112,1.1185,1.118,1.1392,1.142,1.1235,1.1237,1.1238,0,1.0624,1.0679,1.0712,1.0745,1.0764,1.0818,1.0851,1.0846,1.0882,1.0926,1.097,1.1028,1.1075,1.1175,1.1192,1.1247,1.1239,1.131,1.1247,1.1248,1.1242,1.1239,1.1245,1.1322,1.1324,1.1326,1.1327,0,1.0786,1.0785,1.0832,1.088,1.0919,1.0957,1.0993,1.1022,1.1022,1.1063,1.1124,1.116,1.1232,1.1292,1.1345,1.1366,1.1348,1.1346,1.1365,1.1369,1.1365,1.1369,1.1156,1.1342,1.1341,1.1339,1.1339,1.1338,1.0904,1.0952,1.0982,1.1036,1.1062,1.1096,1.1142,1.1155,1.1205,1.1262,1.1256,1.1324,1.136,1.143,1.1454,1.1509,1.1486,1.1512,1.1519,1.1526,1.1533,1.1355,1.1519,1.1519,1.1518,1.1518,1.1517,0,1.1067,1.1085,1.1134,1.1183,1.1226,1.1202,1.124,1.1279,1.1338,1.1371,1.1417,1.1488,1.1545,1.1566,1.1623,1.1663,1.1656,1.1678,1.1676,1.1681,1.155,1.1529,1.1682,1.1682,1.1682,1.1682,1.1682,1.1682,1.1156,1.1236,1.1238,1.1331,1.1349,1.1413,1.1438,1.1469,1.1496,1.1575,1.1622,1.1634,1.1664,1.1722,1.1774,1.1779,1.1802,1.1828,1.1829,1.1707,1.169,1.1674,1.1655,1.1832,1.1832,1.1956,1.1957,1.1958]},{"header":{"parameterUnit":"m.s-1","parameterCategory":1,"la1":30.2991,"la2":30.254,"lo1":-89.0895,"lo2":-89.0444,"dy":0.0017,"dx":0.0017,"nx":28,"ny":28,"refTime":"2024-09-03T03:00:00:Z","depth":0,"parameterNumber":3,"parameterNumberName":"V-component_of_WINDS"},"data":[0,0,0,0,0,0,0,0,0,0,0,0,0,0,0,0,0,0,0,0,0,0,0,0,0,0,0,0,0,0,0,0,0,0,0,0,0,0,0,0,0,0,0,0,0,0,0,0,0,0,0,0,0,0,0,0,0,0,-0.6865,-0.6865,0,-0.6842,-0.6842,-0.6842,-0.6871,-0.6872,-0.6873,-0.6874,-0.6849,-0.6848,-0.6846,0,0,0,0,0,0,0,0,0,0,0,0,0,-0.6935,-0.6933,-0.6865,-0.6865,-0.6865,-0.6842,-0.6842,-0.6842,-0.6871,-0.6872,-0.6874,-0.6875,-0.685,-0.6848,-0.6846,0,0,0,0,0,0,0,0,0,0,0,0,0,-0.6907,-0.6933,-0.6866,-0.6877,-0.6878,-0.6842,-0.6842,-0.6842,-0.6871,-0.6872,-0.6874,-0.6875,-0.6851,-0.6848,-0.6846,-0.6798,0,0,-0.6838,-0.6837,0,0,0,0,0,0,0,0,-0.6909,-0.6905,-0.6875,-0.6876,-0.6877,-0.6861,-0.6857,-0.6827,-0.687,-0.6873,-0.6874,-0.6876,-0.6852,-0.6849,-0.6841,-0.6797,-0.6795,-0.6838,-0.6836,-0.6835,-0.6834,0,0,0,0,0,0,0,-0.6911,-0.6906,-0.6856,-0.6875,-0.6876,-0.6883,-0.6881,-0.6852,-0.6854,-0.6873,-0.6875,-0.6872,-0.6853,-0.6844,-0.6841,-0.6795,-0.6838,-0.6836,-0.6834,-0.6833,-0.671,-0.6708,0,0,0,0,0,0,-0.6911,-0.6907,-0.6857,-0.6856,-0.6897,-0.688,-0.6878,-0.6865,-0.6854,-0.6854,-0.6871,-0.6874,-0.6847,-0.6844,-0.684,-0.6783,-0.6835,-0.6833,-0.6831,-0.6712,-0.671,-0.6708,0,0,0,0,0,0,-0.6913,-0.6907,-0.6858,-0.6882,-0.6876,-0.6877,-0.6862,-0.6863,-0.6855,-0.6852,-0.6853,-0.6861,-0.6848,-0.6844,-0.6808,-0.6783,-0.6832,-0.6829,-0.6714,-0.6711,-0.6709,-0.6669,0,0,0,0,0,0,-0.6915,-0.6907,-0.6889,-0.6881,-0.6875,-0.6826,-0.6861,-0.6862,-0.685,-0.6854,-0.6844,-0.6844,-0.6849,-0.6812,-0.6806,-0.678,-0.6827,-0.6716,-0.6713,-0.671,-0.6673,-0.6665,-0.6659,0,0,0,0,0,-0.6917,-0.6878,-0.6888,-0.6881,-0.6852,-0.6825,-0.6821,-0.6829,-0.6848,-0.683,-0.6829,-0.6844,-0.6787,-0.6808,-0.6801,-0.6775,-0.6718,-0.6714,-0.671,-0.6676,-0.6667,-0.6659,0,0,0,0,0,0,-0.6882,-0.6877,-0.6888,-0.6846,-0.6835,-0.683,-0.6807,-0.6819,-0.6803,-0.6807,-0.6817,-0.6814,-0.6776,-0.6772,-0.6796,-0.6728,-0.6756,-0.675,-0.6732,-0.6723,-0.6717,-0.6718,-0.6825,0,0,0,0,0,-0.6869,-0.6848,-0.6845,-0.6808,-0.6802,-0.6805,-0.6794,-0.6801,-0.679,-0.6786,-0.6782,-0.6771,-0.6751,-0.6737,-0.6718,-0.6673,-0.6671,-0.6651,-0.6645,-0.6639,-0.6634,-0.6609,-0.66,-0.6695,-0.6695,-0.6695,0,0,-0.6843,-0.6838,-0.6823,-0.6801,-0.6794,-0.677,-0.6801,-0.6776,-0.6758,-0.6782,-0.6748,-0.6745,-0.6733,-0.6692,-0.6674,-0.6688,-0.6608,-0.6634,-0.663,-0.6627,-0.6604,-0.6595,-0.6587,-0.6692,-0.6692,-0.6693,0,0,-0.6783,-0.6777,-0.6746,-0.6738,-0.6727,-0.673,-0.6722,-0.6715,-0.6714,-0.668,-0.6697,-0.6677,-0.6642,-0.6633,-0.6624,-0.6562,-0.6575,-0.6555,-0.652,-0.6496,-0.6488,-0.6482,-0.6459,-0.6451,-0.655,-0.655,-0.655,0,-0.6751,-0.6717,-0.6728,-0.6701,-0.669,-0.6711,-0.6679,-0.6671,-0.6655,-0.6647,-0.6663,-0.6619,-0.6613,-0.657,-0.6555,-0.6547,-0.6539,-0.6556,-0.6489,-0.6482,-0.6476,-0.6454,-0.6446,-0.6548,-0.6548,-0.6548,-0.6549,0,-0.6679,-0.6655,-0.6631,-0.6615,-0.6602,-0.6572,-0.6578,-0.6564,-0.6572,-0.6573,-0.6538,-0.6532,-0.6512,-0.6503,-0.6511,-0.6461,-0.647,-0.6487,-0.6515,-0.6464,-0.6444,-0.6436,-0.6544,-0.6545,-0.6546,-0.6547,0,0,-0.6594,-0.6585,-0.6576,-0.6569,-0.6559,-0.6541,-0.6513,-0.6494,-0.6481,-0.6469,-0.6446,-0.6416,-0.6432,-0.6421,-0.6429,-0.6408,-0.6358,-0.6427,-0.6427,-0.6414,-0.6303,-0.6289,-0.628,-0.6368,-0.6366,-0.6365,-0.6304,0,-0.6534,-0.6485,-0.6494,-0.6446,-0.6425,-0.6445,-0.642,-0.6411,-0.6412,-0.6393,-0.6394,-0.6372,-0.6395,-0.6389,-0.6369,-0.6368,-0.6336,-0.6373,-0.6345,-0.6344,-0.6346,-0.6269,-0.6255,-0.6197,-0.6296,-0.6295,-0.6294,0,-0.6456,-0.6442,-0.6392,-0.6386,-0.6377,-0.6355,-0.6339,-0.6321,-0.6311,-0.6313,-0.6302,-0.6313,-0.6285,-0.6314,-0.6276,-0.6301,-0.629,-0.6288,-0.6286,-0.6283,-0.6315,-0.6263,-0.6179,-0.6169,-0.6281,-0.6282,-0.6283,0,-0.6398,-0.6367,-0.6333,-0.6327,-0.6319,-0.6303,-0.6299,-0.6291,-0.6279,-0.6265,-0.6258,-0.6241,-0.6231,-0.6217,-0.6223,-0.6244,-0.6183,-0.6213,-0.6183,-0.6183,-0.6168,-0.6169,-0.608,-0.6163,-0.6163,-0.6164,-0.6164,0,-0.6329,-0.6297,-0.6307,-0.6286,-0.6252,-0.6263,-0.6228,-0.6227,-0.622,-0.6199,-0.6216,-0.6196,-0.6206,-0.6187,-0.6192,-0.6158,-0.6154,-0.6154,-0.6156,-0.6152,-0.6152,-0.6144,-0.6148,-0.6161,-0.6162,-0.6162,-0.6163,0,-0.6258,-0.6263,-0.6228,-0.6224,-0.6222,-0.6197,-0.6193,-0.6174,-0.6176,-0.6149,-0.6144,-0.6147,-0.6125,-0.6131,-0.6107,-0.611,-0.6068,-0.6075,-0.6071,-0.6072,-0.6042,-0.6045,-0.5944,-0.5932,-0.6024,-0.6023,-0.6022,0,-0.6213,-0.6189,-0.6183,-0.617,-0.6165,-0.6145,-0.6133,-0.6143,-0.613,-0.6118,-0.61,-0.608,-0.6064,-0.6029,-0.6029,-0.6011,-0.6017,-0.5983,-0.6014,-0.6011,-0.6015,-0.6016,-0.6013,-0.5976,-0.5975,-0.5974,-0.5974,0,-0.6131,-0.6136,-0.6118,-0.6102,-0.6088,-0.6075,-0.6064,-0.6053,-0.6063,-0.6047,-0.6026,-0.6013,-0.599,-0.5969,-0.5953,-0.5949,-0.5962,-0.5964,-0.5956,-0.5951,-0.595,-0.5949,-0.6053,-0.5966,-0.5967,-0.5967,-0.5968,-0.5968,-0.6071,-0.6051,-0.6044,-0.6024,-0.6017,-0.6007,-0.5988,-0.5989,-0.5971,-0.5952,-0.596,-0.5935,-0.5926,-0.5906,-0.59,-0.588,-0.5893,-0.5881,-0.5878,-0.5875,-0.5871,-0.5954,-0.5877,-0.5878,-0.5878,-0.5878,-0.5878,0,-0.599,-0.5987,-0.5969,-0.5953,-0.5938,-0.5953,-0.5942,-0.5928,-0.5906,-0.5897,-0.5882,-0.5857,-0.5837,-0.5836,-0.5818,-0.5803,-0.5808,-0.5797,-0.5798,-0.5797,-0.5861,-0.5869,-0.5793,-0.5793,-0.5793,-0.5793,-0.5793,-0.5793,-0.5946,-0.5913,-0.5916,-0.588,-0.5877,-0.5853,-0.5845,-0.5835,-0.5829,-0.58,-0.5784,-0.5784,-0.5778,-0.576,-0.5743,-0.5743,-0.5735,-0.5722,-0.5724,-0.5784,-0.5792,-0.58,-0.5808,-0.572,-0.572,-0.5661,-0.5661,-0.566]}]]